Simultaneous Nadir Overpasses (SNOs) Predictions

Prediction of SNOs between GOES-15 and TERRA Satellite Orbit:

Table of predicted SNOs for the next 14.0 days since TLE Epoch: 12/3/2022
Index Date Time (GOES-15) GOES-15 Lat,Lon TERRA Lat,Lon Distance(km) Time Diff (sec)
1 12/03/2022 18:35:29 -0.15,-127.86 -0.64,-125.41 278.18 80
2 12/04/2022 06:55:58 0.14,-127.88 -0.38,-130.40 285.99 80
3 12/06/2022 06:37:36 0.14,-127.81 0.38,-126.59 138.67 80
4 12/06/2022 18:57:57 -0.13,-127.77 0.64,-131.54 428.50 80
5 12/08/2022 18:42:14 -0.13,-127.70 -0.13,-127.74 4.43 80
6 12/10/2022 18:29:11 -0.13,-127.62 -0.92,-123.93 419.71 80
7 12/11/2022 06:49:40 0.12,-127.64 -0.15,-128.91 144.07 80
8 12/13/2022 06:31:17 0.11,-127.56 0.65,-125.11 279.33 80
9 12/13/2022 18:51:38 -0.10,-127.50 0.43,-130.05 288.88 80
10 12/15/2022 18:38:35 -0.10,-127.42 -0.38,-126.25 134.56 80
11 12/16/2022 06:59:03 0.09,-127.45 -0.73,-131.21 428.47 80
